Wind_Speed
19 20 20 20 21 21 21 21 20 19 18 18 17 16 15 15 15 14 14 14 14 13 13 13 12 12 12 13 13 14 15 17 18 18 18 18 19 20 21 21 21 21 21
20 20 20 20 20 21 21 22 21 20 20 19 18 17 16 15 15 15 15 15 15 15 14 14 14 14 14 14 15 16 17 18 19 19 19 19 20 20 21 22 22 22 22
22 22 21 20 20 21 21 22 22 22 21 20 19 18 17 16 16 16 16 16 17 17 16 16 16 16 16 17 17 18 19 20 20 20 20 20 21 21 21 22 22 22 23
24 23 23 22 22 22 22 23 23 23 23 22 21 20 19 17 17 16 16 17 17 17 17 17 16 17 17 17 18 18 19 20 20 20 21 21 22 22 22 23 24 24 24
24 24 24 24 23 22 22 23 23 24 24 23 22 21 20 19 18 17 17 17 18 18 18 17 17 16 16 16 16 17 17 18 19 20 21 22 23 24 24 25 25 25 25
25 25 25 25 24 24 23 23 23 24 24 24 23 22 21 20 20 19 18 18 18 18 18 17 17 17 16 16 16 17 18 19 20 21 22 24 25 26 26 27 27 27 27
25 25 26 25 25 25 25 25 25 24 24 24 24 24 23 22 21 20 19 19 19 19 18 18 18 18 17 17 17 17 18 19 20 21 22 24 25 25 26 26 27 27 26
26 26 27 26 26 26 26 26 25 25 25 25 25 24 23 23 22 21 20 20 19 19 18 18 18 18 17 17 18 19 19 21 22 24 25 26 26 26 26 26 25 25 25
27 27 28 27 27 27 27 27 26 25 25 24 24 24 23 23 23 22 21 21 20 19 18 18 18 19 19 19 20 21 23 24 26 28 29 31 30 29 29 28 27 27 27
30 28 29 28 28 28 27 27 26 26 25 24 23 23 23 23 23 23 22 22 21 20 20 20 21 21 21 22 23 24 24 25 27 27 28 28 27 27 28 28 28 28 28
32 31 30 29 29 29 28 28 28 27 26 25 24 23 23 23 23 23 23 24 23 23 23 23 23 24 25 26 26 26 26 27 26 25 25 23 23 24 25 25 25 26 27
34 33 32 31 31 30 30 30 29 29 28 27 26 25 24 23 23 24 24 24 25 25 26 26 26 27 27 28 28 28 28 28 27 24 25 23 22 23 24 25 25 26 27
35 35 34 34 33 33 32 32 31 31 30 30 29 27 26 25 24 24 24 25 26 27 28 28 29 29 29 29 29 29 30 29 28 26 27 26 25 25 26 27 28 29 30
34 34 35 36 35 35 34 33 32 32 32 31 30 29 28 27 26 25 25 26 27 28 29 30 30 31 31 31 31 30 30 30 29 29 29 29 29 29 29 30 31 31 31
33 33 34 36 36 36 36 35 34 33 33 32 32 31 30 30 29 28 27 27 27 29 30 30 31 32 33 33 32 32 32 32 31 31 31 31 32 32 32 32 32 33 33
32 33 33 35 36 37 36 36 35 34 34 33 33 33 32 32 31 30 29 29 29 30 31 31 32 32 33 33 33 34 33 33 33 32 32 33 33 33 34 34 34 34 34
32 34 34 34 36 36 37 37 36 35 34 34 34 34 34 34 33 33 32 31 31 31 32 32 33 33 34 34 34 35 35 35 33 33 32 33 34 34 35 35 35 36 37
34 34 34 34 34 35 36 37 37 36 35 34 34 35 35 34 34 34 34 34 34 34 34 34 34 34 35 35 35 35 36 35 34 33 33 33 34 35 36 37 38 39 40
36 36 36 34 33 34 35 37 37 37 36 35 34 34 34 34 35 35 35 35 35 36 36 37 37 36 36 36 36 37 37 36 36 36 36 36 37 37 39 40 42 43 44
37 38 38 37 35 35 35 36 37 37 37 36 35 34 34 35 35 35 34 35 36 37 38 39 39 38 38 38 38 38 39 38 38 39 39 39 40 42 43 44 45 47 48
37 39 41 41 38 38 37 36 37 38 38 38 37 35 35 35 35 35 35 35 37 38 39 39 40 40 40 40 40 40 41 41 41 42 42 43 44 45 46 48 49 50 50
39 40 41 43 43 41 40 38 39 39 39 38 38 37 37 36 36 36 36 36 37 38 39 39 39 41 41 42 43 43 44 43 43 45 46 47 47 48 49 50 51 52 53
43 43 43 44 46 45 44 43 42 40 39 39 39 39 39 39 39 38 37 37 38 39 39 39 39 40 42 43 45 45 46 46 46 46 48 49 49 51 52 53 53 54 55
48 48 48 48 49 50 49 47 45 43 42 41 41 41 41 41 40 39 38 38 39 39 39 40 41 42 43 44 46 47 48 49 49 49 49 50 50 51 53 54 55 56 58
54 53 52 51 51 51 51 49 48 47 45 43 42 41 41 41 41 40 40 40 40 39 39 40 42 43 45 46 47 48 49 50 51 51 50 50 51 53 54 54 55 57 59
58 58 57 55 53 52 51 50 50 49 47 45 43 42 42 42 42 41 41 40 40 39 40 41 43 44 46 47 48 49 50 51 53 53 53 52 51 52 54 56 58 60 62
Wind_Direction
249 249 249 251 252 253 252 251 253 254 257 260 265 272 273 269 266 265 264 261 260 258 257 257 259 262 265 268 271 275 277 279 281 283 283 282 279 277 276 278 280 282 285
250 249 248 248 249 250 249 249 249 251 254 258 262 268 271 269 266 265 265 264 263 262 261 261 262 263 264 265 267 271 275 279 283 285 286 285 283 282 281 281 282 282 284
252 250 250 249 250 250 249 248 248 249 251 254 259 263 267 268 266 265 266 266 265 265 266 266 266 267 268 269 271 274 278 282 285 286 286 286 285 284 283 282 282 282 283
255 256 256 256 255 253 252 250 250 250 251 252 255 259 263 264 263 263 264 265 266 267 268 269 270 271 273 275 277 279 280 281 282 282 281 281 282 281 281 280 281 281 282
257 259 260 260 258 256 254 253 252 252 252 252 254 256 258 259 258 259 262 264 266 267 268 270 273 274 276 277 279 280 280 281 280 280 279 279 279 279 278 278 278 279 279
257 259 261 261 261 260 259 258 257 255 254 254 254 255 256 257 256 256 259 262 264 266 267 270 272 273 274 275 277 278 280 281 282 282 283 282 281 280 279 278 277 278 279
257 260 261 262 263 264 263 262 261 260 258 257 256 255 256 257 256 256 258 261 263 265 266 267 268 269 270 272 275 278 280 283 284 285 286 285 283 282 280 279 280 280 280
255 258 261 262 263 265 266 266 266 265 264 262 259 258 258 258 259 259 259 261 262 264 264 265 266 267 269 273 277 280 282 284 285 286 287 285 284 283 282 281 282 282 282
254 257 261 264 265 267 269 270 270 270 269 267 264 262 262 262 263 263 262 261 262 262 262 262 263 266 270 274 278 283 286 288 289 289 287 284 283 282 281 281 281 282 283
256 257 261 264 267 269 271 274 275 274 272 269 268 267 266 267 268 268 266 263 261 261 261 261 263 267 271 275 281 286 289 292 292 292 289 286 283 282 281 281 282 282 283
257 258 260 264 267 269 272 275 276 275 273 271 270 270 270 270 271 271 270 266 263 262 262 262 264 269 273 277 282 286 289 291 292 292 287 285 283 282 283 284 286 286 286
257 259 261 263 266 268 271 273 274 274 273 272 272 272 272 272 274 274 273 270 268 266 265 265 266 269 272 277 282 285 286 288 289 287 284 283 281 282 284 287 289 290 290
258 260 261 262 263 266 268 270 272 273 274 274 273 274 273 274 275 275 275 273 272 271 270 269 268 269 271 275 279 283 284 285 286 284 281 280 280 282 285 288 291 292 293
258 259 260 261 262 263 266 268 269 271 272 273 275 276 276 276 277 279 279 277 276 274 273 272 271 271 272 275 277 280 282 284 284 284 280 279 280 282 285 289 292 294 295
259 258 258 260 261 262 263 265 267 268 270 272 275 277 278 279 281 282 280 279 277 276 275 275 274 273 273 275 276 278 280 282 283 284 282 279 279 282 285 289 293 295 297
258 258 257 258 260 261 263 264 266 267 268 270 272 274 276 279 281 282 282 281 279 278 277 277 276 275 275 275 277 279 281 283 284 285 284 282 281 283 286 289 293 296 298
256 258 257 258 260 261 263 264 265 267 267 268 270 272 274 277 279 281 282 281 280 279 278 278 278 277 277 277 278 280 283 285 286 285 285 284 284 285 288 291 294 296 298
255 258 259 258 260 262 263 263 265 266 267 269 270 272 274 276 279 280 281 281 280 279 279 278 279 278 278 278 279 281 284 287 288 287 287 287 287 289 291 292 294 296 297
254 257 259 259 260 261 262 263 265 266 267 269 271 273 275 277 279 281 282 282 281 280 278 278 279 279 279 280 280 282 284 286 288 288 289 289 290 290 291 293 294 295 296
252 254 257 259 259 260 262 263 265 267 267 267 269 271 274 276 279 282 284 283 282 281 279 278 279 279 279 280 280 281 283 285 286 288 289 290 291 291 292 292 293 294 294
252 253 255 258 258 259 261 263 265 266 267 267 268 270 273 276 279 283 284 284 284 282 280 279 279 280 280 281 281 281 283 285 286 287 288 289 289 290 291 292 292 292 293
253 252 253 255 257 257 259 261 262 263 266 268 269 271 272 275 278 281 284 285 285 284 282 280 279 280 281 282 282 282 283 284 286 288 289 289 289 289 290 291 292 292 292
256 254 253 253 254 255 256 257 260 263 265 267 269 270 271 273 276 281 284 285 284 284 283 283 282 282 282 283 283 284 284 285 286 287 288 289 290 292 293 293 293 293 293
257 255 254 252 252 253 253 255 257 260 262 264 265 267 269 272 275 279 282 283 283 283 284 284 284 284 284 284 285 286 287 288 288 289 290 291 292 293 293 294 294 295 295
257 256 254 253 252 252 253 253 254 256 258 260 262 265 268 270 273 276 279 281 282 284 285 286 286 285 285 286 287 288 288 289 289 290 291 292 293 294 294 294 294 294 295
256 255 254 253 252 252 252 251 251 253 255 257 260 262 264 267 271 274 277 279 282 284 285 286 287 288 288 289 290 290 290 291 291 291 292 292 292 293 294 295 295 296 296
Height
5851 5851 5852 5853 5854 5854 5855 5856 5857 5858 5858 5859 5859 5859 5859 5859 5859 5859 5859 5859 5859 5860 5860 5860 5860 5860 5860 5860 5860 5860 5860 5860 5860 5860 5860 5860 5860 5860 5859 5859 5860 5859 5859
5848 5848 5849 5850 5851 5852 5852 5853 5854 5855 5856 5856 5857 5857 5857 5857 5857 5857 5857 5857 5857 5857 5857 5857 5858 5858 5858 5858 5858 5858 5858 5857 5857 5857 5857 5857 5857 5857 5856 5856 5856 5856 5856
5844 5845 5846 5847 5848 5849 5850 5850 5851 5852 5853 5854 5854 5854 5854 5855 5854 5854 5854 5855 5855 5855 5855 5855 5855 5855 5855 5856 5856 5856 5855 5855 5855 5855 5855 5854 5854 5854 5853 5853 5853 5853 5852
5841 5842 5844 5845 5845 5846 5847 5847 5848 5849 5850 5850 5851 5851 5852 5852 5852 5852 5852 5852 5852 5852 5852 5852 5852 5852 5853 5853 5853 5853 5853 5853 5852 5852 5852 5851 5850 5850 5850 5849 5849 5848 5848
5838 5839 5840 5841 5842 5843 5843 5844 5845 5846 5846 5847 5848 5848 5848 5848 5848 5848 5848 5849 5849 5849 5849 5849 5849 5849 5849 5849 5849 5849 5849 5849 5848 5848 5848 5847 5846 5846 5845 5845 5844 5844 5843
5835 5836 5836 5838 5838 5839 5840 5841 5841 5842 5842 5843 5844 5844 5844 5845 5845 5845 5845 5845 5845 5845 5846 5846 5846 5846 5846 5846 5845 5845 5845 5845 5845 5845 5844 5844 5843 5842 5841 5840 5839 5839 5839
5831 5832 5832 5833 5834 5835 5836 5837 5837 5838 5838 5839 5839 5840 5840 5841 5841 5841 5841 5842 5842 5842 5843 5843 5843 5843 5842 5842 5842 5842 5842 5842 5841 5841 5840 5839 5839 5838 5837 5836 5835 5835 5835
5827 5828 5828 5829 5830 5831 5831 5832 5833 5834 5834 5834 5835 5835 5836 5836 5837 5837 5838 5838 5839 5839 5839 5839 5839 5839 5839 5839 5839 5838 5838 5838 5838 5837 5837 5835 5835 5834 5832 5832 5831 5831 5830
5823 5824 5824 5825 5826 5827 5828 5828 5829 5830 5830 5830 5831 5831 5832 5832 5833 5833 5834 5834 5835 5835 5836 5836 5836 5836 5836 5836 5835 5835 5835 5834 5833 5833 5831 5830 5829 5828 5828 5827 5827 5826 5825
5818 5820 5821 5822 5823 5824 5824 5825 5825 5826 5826 5827 5827 5828 5828 5828 5829 5829 5830 5830 5831 5831 5832 5832 5832 5832 5832 5832 5832 5831 5830 5829 5828 5827 5825 5824 5824 5823 5822 5822 5821 5821 5820
5813 5815 5817 5818 5819 5820 5820 5821 5821 5822 5823 5823 5824 5824 5824 5825 5825 5825 5825 5826 5826 5827 5827 5828 5828 5828 5828 5828 5827 5827 5826 5825 5824 5823 5820 5820 5819 5818 5817 5816 5816 5815 5814
5808 5810 5812 5813 5814 5815 5816 5816 5817 5818 5818 5819 5819 5820 5820 5821 5821 5821 5821 5821 5822 5822 5823 5823 5824 5824 5823 5823 5822 5821 5821 5820 5819 5818 5815 5815 5815 5814 5813 5812 5811 5810 5808
5802 5804 5806 5807 5809 5810 5811 5811 5812 5813 5813 5814 5815 5815 5816 5816 5817 5817 5817 5817 5817 5817 5817 5818 5818 5818 5818 5818 5817 5816 5815 5814 5814 5813 5811 5810 5809 5809 5807 5806 5805 5804 5802
5796 5798 5799 5800 5802 5803 5804 5806 5807 5807 5808 5809 5810 5810 5811 5811 5812 5812 5812 5812 5812 5812 5812 5812 5812 5812 5812 5812 5811 5810 5809 5808 5808 5807 5805 5804 5804 5802 5801 5800 5799 5797 5796
5789 5791 5792 5793 5794 5796 5798 5799 5801 5802 5803 5803 5804 5805 5805 5806 5806 5807 5807 5807 5806 5806 5806 5806 5806 5806 5806 5805 5804 5804 5803 5802 5801 5800 5799 5798 5797 5796 5794 5793 5792 5790 5788
5782 5784 5786 5787 5788 5789 5791 5793 5794 5796 5797 5798 5798 5799 5799 5800 5800 5800 5801 5801 5800 5800 5799 5799 5799 5799 5799 5798 5798 5797 5796 5795 5794 5793 5792 5790 5789 5788 5787 5785 5784 5782 5781
5776 5777 5778 5780 5781 5783 5784 5786 5787 5789 5790 5792 5792 5792 5793 5794 5794 5794 5794 5794 5794 5793 5793 5793 5793 5792 5792 5791 5791 5790 5788 5787 5786 5785 5784 5783 5781 5780 5779 5777 5776 5774 5772
5770 5770 5772 5774 5775 5777 5778 5779 5780 5782 5784 5786 5786 5786 5787 5787 5787 5788 5788 5788 5787 5787 5786 5786 5786 5785 5785 5784 5784 5782 5781 5779 5778 5777 5776 5775 5773 5772 5770 5768 5766 5765 5763
5763 5764 5765 5767 5770 5771 5771 5772 5774 5775 5777 5779 5780 5781 5781 5781 5781 5781 5781 5781 5780 5780 5779 5779 5778 5778 5777 5777 5776 5775 5774 5772 5770 5768 5767 5766 5764 5763 5761 5759 5757 5754 5752
5756 5757 5758 5760 5763 5764 5765 5766 5767 5769 5770 5772 5773 5774 5775 5775 5775 5775 5774 5774 5773 5773 5772 5771 5771 5770 5770 5769 5768 5767 5766 5764 5762 5760 5758 5757 5755 5753 5751 5749 5747 5744 5741
5748 5750 5751 5752 5755 5756 5758 5760 5761 5761 5762 5764 5766 5768 5768 5768 5768 5768 5768 5767 5766 5765 5765 5764 5763 5762 5761 5760 5760 5759 5757 5755 5753 5751 5749 5747 5745 5743 5740 5737 5734 5732 5729
5739 5741 5743 5744 5746 5748 5750 5752 5753 5753 5754 5756 5758 5760 5761 5761 5760 5760 5760 5760 5759 5758 5757 5756 5755 5754 5753 5751 5750 5749 5748 5747 5744 5741 5738 5736 5733 5731 5728 5725 5722 5718 5715
5728 5731 5733 5735 5736 5738 5741 5743 5744 5745 5747 5748 5750 5752 5752 5752 5753 5753 5753 5752 5751 5750 5749 5748 5747 5746 5744 5742 5741 5739 5737 5735 5734 5732 5728 5725 5721 5718 5715 5711 5708 5704 5700
5716 5719 5721 5723 5725 5727 5730 5733 5736 5738 5739 5740 5742 5743 5744 5745 5745 5745 5745 5744 5743 5742 5741 5740 5738 5737 5736 5734 5731 5728 5726 5723 5721 5720 5717 5713 5710 5706 5702 5698 5694 5689 5684
5702 5705 5708 5711 5713 5715 5719 5723 5726 5728 5730 5732 5733 5735 5736 5737 5737 5737 5737 5736 5735 5734 5733 5731 5729 5727 5726 5724 5721 5718 5715 5712 5709 5707 5706 5702 5698 5693 5689 5685 5681 5676 5671
5687 5690 5694 5697 5700 5704 5707 5712 5715 5718 5721 5723 5725 5726 5727 5728 5729 5729 5729 5728 5727 5725 5724 5722 5720 5718 5715 5713 5710 5707 5704 5700 5697 5694 5692 5690 5687 5682 5677 5671 5666 5662 5657